Location: Veytaux
(46.4185°N, 6.9320°E)
Time: 08:25:11
(UTC+00:00)

Cosmos 1709 Rocket - Pass Details

Date: 27 May 2022
Orbit: 947 x 1002 km, 82.9° (Epoch: 01 July)

Event Time Altitude Azimuth Distance (km) Brightness Sun altitude
Rises 00:08:08 0° 352° (N) 3,647 8.3 -21.8°
Reaches altitude 10° 00:10:39 10° 354° (N) 2,691 7.4 -21.7°
Maximum altitude 00:16:48 75° 81° (E) 983 4.0 -21.5°
Enters shadow 00:19:32 35° 159° (SSE) 1,484 4.5 -21.4°
